Whyalla, Australia

5:43 PM ACDT on February 22, 2017 (GMT +1030)
Whyalla

Weather History for 94664 - April, 2013

Change the Weather History Date:

Saturday, April 6, 2013

  Actual Average Record
Temperature  
Mean Temperature 70 °F -  
Max Temperature 84 °F - - ()
Min Temperature 55 °F - - ()
Cooling Degree Days 4    
Growing Degree Days 20 (Base 50)    
Moisture  
Dew Point 54 °F    
Average Humidity 62    
Maximum Humidity 78    
Minimum Humidity 28    
Precipitation  
Precipitation 0.00 in - - ()
Sea Level Pressure  
Sea Level Pressure 30.08 in    
Wind  
Wind Speed 6 mph ()    
Max Wind Speed 14 mph    
Max Gust Speed -    
Visibility 6.2 miles    
Events      
T = Trace of Precipitation, MM = Missing Value Source: Averaged Metar Reports

Daily Weather History Graph

Daily Weather History Graph

Search for Another Location

Airport or City:

Trip Planner

Search our weather history database for the weather conditions in past years. The results will help you decide how hot, cold, wet, or windy it might be!

Date:

Astronomy

Apr. 06, 2013 Rise Set
Actual Time 7:35 AM ACDT 7:09 PM ACDT
Civil Twilight 7:10 AM ACDT 7:33 PM ACDT
Nautical Twilight 6:41 AM ACDT 8:02 PM ACDT
Astronomical Twilight 6:13 AM ACDT 8:31 PM ACDT
Moon 3:13 AM ACDT (4/6) 4:27 PM ACDT (4/6)
Length of Visible Light 12h 23m
Length of Day
11h 34m
Waning Crescent, 20% of the Moon is Illuminated
Apr 6
Waning Crescent
Apr 10
New
Apr 18
First Quarter
Apr 26
Full
May 2
Last Quarter

Hourly Weather History & Observations

Time (ACDT) Temp. Dew Point Humidity Pressure Visibility Wind Dir Wind Speed Gust Speed Precip Events Conditions
12:30 AM 60.8 °F 51.8 °F 72% 30.15 in 6.2 mi SW 5.8 mph - N/A   Unknown
1:30 AM 62.6 °F 55.4 °F 77% 30.12 in 6.2 mi WSW 8.1 mph - N/A   Unknown
2:30 AM 60.8 °F 53.6 °F 77% 30.12 in 6.2 mi Calm Calm - N/A   Unknown
3:30 AM 59.0 °F 51.8 °F 77% 30.12 in 6.2 mi West 4.6 mph - N/A   Unknown
4:30 AM 59.0 °F 51.8 °F 77% 30.09 in 6.2 mi West 5.8 mph - N/A   Unknown
5:30 AM 57.2 °F 50.0 °F 77% 30.09 in 6.2 mi NW 3.5 mph - N/A   Unknown
6:30 AM 55.4 °F 48.2 °F 77% 30.09 in 6.2 mi WNW 6.9 mph - N/A   Unknown
7:30 AM 55.4 °F 48.2 °F 77% 30.09 in 6.2 mi West 3.5 mph - N/A   Unknown
8:30 AM 59.0 °F 50.0 °F 72% 30.12 in 6.2 mi West 4.6 mph - N/A   Unknown
9:30 AM 68.0 °F 59.0 °F 73% 30.12 in 6.2 mi SSW 9.2 mph - N/A   Unknown
10:30 AM 69.8 °F 59.0 °F 68% 30.12 in 6.2 mi South 9.2 mph - N/A   Unknown
11:30 AM 73.4 °F 59.0 °F 61% 30.09 in 6.2 mi SSW 6.9 mph - N/A   Unknown
12:30 PM 77.0 °F 55.4 °F 47% 30.09 in 6.2 mi South 4.6 mph - N/A   Unknown
1:30 PM 80.6 °F 46.4 °F 30% 30.06 in 6.2 mi SE 6.9 mph - N/A   Unknown
2:30 PM 82.4 °F 46.4 °F 28% 30.04 in 6.2 mi SE 6.9 mph - N/A   Unknown
3:30 PM 84.2 °F 48.2 °F 29% 30.01 in 6.2 mi SE 8.1 mph - N/A   Unknown
4:30 PM 82.4 °F 48.2 °F 30% 30.01 in 6.2 mi SSE 9.2 mph - N/A   Unknown
5:30 PM 82.4 °F 50.0 °F 32% 30.01 in 6.2 mi SE 10.4 mph - N/A   Unknown
6:30 PM 75.2 °F 59.0 °F 57% 30.01 in 6.2 mi South 10.4 mph - N/A   Unknown
7:30 PM 71.6 °F 60.8 °F 69% 30.04 in 6.2 mi South 8.1 mph - N/A   Unknown
8:30 PM 71.6 °F 59.0 °F 64% 30.06 in 6.2 mi SSW 13.8 mph - N/A   Unknown
9:30 PM 69.8 °F 55.4 °F 60% 30.06 in 6.2 mi SSW 11.5 mph - N/A   Unknown
10:30 PM 69.8 °F 59.0 °F 68% 30.09 in 6.2 mi SSW 8.1 mph - N/A   Unknown
11:30 PM 68.0 °F 60.8 °F 78% 30.09 in 6.2 mi SSW 8.1 mph - N/A   Unknown